Find Local Weather

World > North America > United States > Florida

Ocala, Florida Regional Weather

Lat: 29.19N, Lon: 82.13W
Wx Zone: FLZ040
Feedback
Expires:201807201500;;771690
ASUS42 KTBW 201416
RWRFL 
FLORIDA REGIONAL WEATHER ROUNDUP
NATIONAL WEATHER SERVICE TAMPA BAY RUSKIN FL
1000 AM EDT FRI JUL 20 2018

NOTE: "FAIR" INDICATES FEW OR NO CLOUDS BELOW 12,000 FEET WITH NO
SIGNIFICANT WEATHER AND/OR OBSTRUCTIONS TO VISIBILITY.


FLZ040-043>046-052-053-057-058-063-144-201500-
INTERIOR CENTRAL FLORIDA
  
CITY           SKY/WX    TMP DP  RH WIND       PRES   REMARKS
OCALA          RAIN      79  77  94 SW5       30.00R                  
LEESBURG       CLOUDY    81  78  91 S7        30.01R                  
SANFORD        FAIR      86  76  71 S10       30.00R HX  96           
ORLANDO EXEC   PTSUNNY   85  77  77 SW10      30.01R HX  95           
ORLANDO INTL   PTSUNNY   85  78  80 S10       30.01R HX  96           
KISSIMMEE      MOSUNNY   84  77  79 S9        30.02R                  
WINTER HAVEN   TSTM      79  75  87 S9        30.03R                  
LAKELAND       MOSUNNY   79  75  89 SW7       30.02R                  
BARTOW         LGT RAIN  75  77 100 SW5       30.02R                  
SEBRING        FAIR      87  76  69 SW8       30.02S HX  97           
OKEECHOBEE     FAIR      84  77  79 S8        30.02S                  

$$

SKY/WX - Weather  TMP - Temperature  DP - Dewpoint  RH - Relative Humidity
WIND - Wind Direction/Speed PRES - Barometric Pressure